Location: Unspecified
(0.0000°N, 0.0000°E)
Time: 14:05:50
(UTC+00:00)

BREEZE-M R/B - Pass Details

Date: 02 November 2020
Orbit: 3083 x 63194 km, 23.7° (Epoch: 26 November)

Event Time Altitude Azimuth Distance (km) Brightness Sun altitude
Rises 04:06:51 0° 72° (ENE) 60,348 ? -23.3°
Reaches altitude 10° 05:04:48 10° 70° (ENE) 62,686 ? -9.4°
Maximum altitude 11:32:57 64° 2° (N) 60,447 ? 74.8°
Drops below altitude 10° 19:29:09 10° 121° (ESE) 6,154 ? -25.4°
Enters shadow 19:30:37 - 120° (ESE) 6,551 ? -25.8°
